www.hobby-wetter-faasend.de
Wetterdaten: aktuell Dienstag, 16.01.2018 08:30
Datum Zeit Temp. A. Temp. A. min Temp. A. max Feuchte A. Luftdruck Regen Wind Richtung Richtung Sonnenschein Taupunkt Windchill Windben
16.01.2018 08:30 6,9 C 6,8 C 6,9 C 93 % 997,9 hPa 0,0 l/m 4,8 km/h (1 Bft) W-SW 257 0 min 5,8 C 6,9 C 22,5 km/h (4 Bft)
16.01.2018 08:16 6,8 C 6,7 C 6,8 C 93 % 997,7 hPa 0,0 l/m 5,6 km/h (1 Bft) SW 224 0 min 5,7 C 6,8 C 25,7 km/h (4 Bft)
16.01.2018 08:00 6,7 C 6,7 C 6,7 C 93 % 997,7 hPa 0,0 l/m 2,8 km/h (1 Bft) W-SW 245 0 min 5,6 C 6,7 C 27,4 km/h (4 Bft)
16.01.2018 07:45 6,7 C 6,6 C 6,7 C 93 % 997,4 hPa 0,0 l/m 6,4 km/h (2 Bft) W-SW 237 0 min 5,6 C 6,7 C 20,9 km/h (4 Bft)
16.01.2018 07:30 6,7 C 6,7 C 6,8 C 94 % 997,5 hPa 0,2 l/m 7,6 km/h (2 Bft) S-SW 208 0 min 5,8 C 5,7 C 38,6 km/h (5 Bft)
16.01.2018 07:15 6,8 C 6,6 C 6,8 C 95 % 997,4 hPa 0,2 l/m 4,9 km/h (1 Bft) S-SW 210 0 min 6,1 C 6,8 C 17,7 km/h (3 Bft)
16.01.2018 07:00 6,6 C 6,6 C 6,6 C 95 % 997,3 hPa 0,0 l/m 2,5 km/h (1 Bft) W-SW 238 0 min 5,9 C 6,6 C 19,3 km/h (3 Bft)
16.01.2018 06:45 6,6 C 6,6 C 6,6 C 94 % 997,4 hPa 0,2 l/m 5,4 km/h (1 Bft) W-SW 247 0 min 5,7 C 6,6 C 19,3 km/h (3 Bft)
16.01.2018 06:30 6,6 C 6,6 C 6,8 C 94 % 997,4 hPa 0,2 l/m 5,8 km/h (2 Bft) W-SW 250 0 min 5,7 C 6,6 C 22,5 km/h (4 Bft)
16.01.2018 06:15 6,8 C 6,7 C 6,8 C 95 % 997,4 hPa 0,6 l/m 4,2 km/h (1 Bft) SW 221 0 min 6,1 C 6,8 C 45,1 km/h (6 Bft)
16.01.2018 06:00 6,8 C 6,7 C 6,8 C 95 % 997,3 hPa 0,8 l/m 3,1 km/h (1 Bft) W 281 0 min 6,1 C 6,8 C 14,5 km/h (3 Bft)
16.01.2018 05:45 6,7 C 6,6 C 6,7 C 94 % 997,4 hPa 0,0 l/m 3,6 km/h (1 Bft) W-NW 302 0 min 5,8 C 6,7 C 24,1 km/h (4 Bft)
16.01.2018 05:30 6,7 C 6,6 C 6,7 C 94 % 997,7 hPa 0,2 l/m 1,3 km/h (1 Bft) W-SW 242 0 min 5,8 C 6,7 C 8,0 km/h (2 Bft)
16.01.2018 05:16 6,7 C 6,6 C 6,7 C 94 % 998,1 hPa 0,4 l/m 2,1 km/h (1 Bft) W 269 0 min 5,8 C 6,7 C 17,7 km/h (3 Bft)
16.01.2018 05:00 6,7 C 6,7 C 6,7 C 94 % 998,5 hPa 0,6 l/m 4,1 km/h (1 Bft) W-SW 247 0 min 5,8 C 6,7 C 16,1 km/h (3 Bft)
16.01.2018 04:45 6,7 C 6,7 C 6,7 C 94 % 998,7 hPa 0,6 l/m 3,4 km/h (1 Bft) W 267 0 min 5,8 C 6,7 C 24,1 km/h (4 Bft)
16.01.2018 04:30 6,7 C 6,6 C 6,7 C 94 % 998,7 hPa 0,2 l/m 2,7 km/h (1 Bft) W-SW 239 0 min 5,8 C 6,7 C 11,3 km/h (2 Bft)
16.01.2018 04:15 6,6 C 6,5 C 6,7 C 94 % 999,1 hPa 0,2 l/m 3,1 km/h (1 Bft) W-SW 237 0 min 5,7 C 6,6 C 14,5 km/h (3 Bft)
16.01.2018 04:00 6,5 C 6,4 C 6,5 C 94 % 999,4 hPa 0,0 l/m 1,3 km/h (1 Bft) W-SW 240 0 min 5,6 C 6,5 C 12,9 km/h (3 Bft)
16.01.2018 03:45 6,4 C 6,4 C 6,5 C 94 % 999,7 hPa 0,8 l/m 1,1 km/h (1 Bft) W 281 0 min 5,5 C 6,4 C 6,4 km/h (2 Bft)
16.01.2018 03:30 6,5 C 6,5 C 6,6 C 93 % 999,9 hPa 0,4 l/m 0,1 km/h (0 Bft) W 262 0 min 5,5 C 6,5 C 1,6 km/h (1 Bft)
16.01.2018 03:16 6,6 C 6,5 C 6,6 C 93 % 1000,0 hPa 0,0 l/m 1,8 km/h (1 Bft) W 262 0 min 5,6 C 6,6 C 11,3 km/h (2 Bft)
16.01.2018 03:00 6,5 C 6,5 C 6,6 C 93 % 1000,2 hPa 1,0 l/m 6,0 km/h (2 Bft) W-NW 302 0 min 5,5 C 6,5 C 25,7 km/h (4 Bft)
16.01.2018 02:45 6,6 C 6,4 C 6,6 C 94 % 1000,1 hPa 0,2 l/m 4,8 km/h (1 Bft) S-SW 195 0 min 5,7 C 6,6 C 22,5 km/h (4 Bft)
16.01.2018 02:30 6,4 C 6,1 C 6,4 C 94 % 1000,1 hPa 0,2 l/m 3,2 km/h (1 Bft) W-SW 248 0 min 5,5 C 6,4 C 16,1 km/h (3 Bft)
16.01.2018 02:15 6,1 C 6,1 C 6,2 C 93 % 1000,3 hPa 0,0 l/m 2,1 km/h (1 Bft) SW 223 0 min 5,1 C 6,1 C 19,3 km/h (3 Bft)
16.01.2018 02:00 6,1 C 6,0 C 6,1 C 93 % 1000,5 hPa 0,4 l/m 5,1 km/h (1 Bft) S-SW 204 0 min 5,1 C 6,1 C 24,1 km/h (4 Bft)
16.01.2018 01:45 6,1 C 6,1 C 6,2 C 93 % 1000,8 hPa 0,2 l/m 3,3 km/h (1 Bft) W-SW 255 0 min 5,1 C 6,1 C 19,3 km/h (3 Bft)
16.01.2018 01:30 6,2 C 6,2 C 6,4 C 93 % 1000,8 hPa 0,0 l/m 4,6 km/h (1 Bft) W-SW 254 0 min 5,2 C 6,2 C 17,7 km/h (3 Bft)
16.01.2018 01:15 6,4 C 6,4 C 6,9 C 93 % 1000,7 hPa 1,0 l/m 9,5 km/h (2 Bft) S-SW 211 0 min 5,4 C 4,0 C 30,6 km/h (5 Bft)
16.01.2018 01:00 6,8 C 6,7 C 6,8 C 94 % 1000,9 hPa 0,4 l/m 4,5 km/h (1 Bft) W-NW 290 0 min 5,9 C 6,8 C 19,3 km/h (3 Bft)
16.01.2018 00:45 6,7 C 6,6 C 6,7 C 94 % 1000,4 hPa 0,0 l/m 3,9 km/h (1 Bft) SW 217 0 min 5,8 C 6,7 C 20,9 km/h (4 Bft)
16.01.2018 00:30 6,6 C 6,4 C 6,6 C 94 % 1000,6 hPa 0,0 l/m 3,4 km/h (1 Bft) W-SW 246 0 min 5,7 C 6,6 C 16,1 km/h (3 Bft)
16.01.2018 00:15 6,4 C 6,4 C 6,4 C 94 % 1000,6 hPa 0,0 l/m 4,0 km/h (1 Bft) S-SW 213 0 min 5,5 C 6,4 C 19,3 km/h (3 Bft)
16.01.2018 00:00 6,4 C 6,3 C 6,4 C 94 % 1000,6 hPa 0,0 l/m 7,9 km/h (2 Bft) S-SW 197 0 min 5,5 C 5,2 C 25,7 km/h (4 Bft)
15.01.2018 23:45 6,3 C 6,2 C 6,3 C 94 % 1000,8 hPa 0,0 l/m 6,6 km/h (2 Bft) S-SO 168 0 min 5,4 C 6,2 C 20,9 km/h (4 Bft)
15.01.2018 23:30 6,2 C 6,1 C 6,2 C 94 % 1000,8 hPa 0,4 l/m 8,7 km/h (2 Bft) SW 229 0 min 5,3 C 4,3 C 24,1 km/h (4 Bft)
15.01.2018 23:15 6,1 C 6,1 C 6,1 C 94 % 1000,9 hPa 0,4 l/m 9,6 km/h (2 Bft) S-SW 205 0 min 5,2 C 3,6 C 30,6 km/h (5 Bft)
15.01.2018 23:00 6,1 C 6,0 C 6,1 C 94 % 1000,9 hPa 0,0 l/m 10,8 km/h (2 Bft) S-SO 157 0 min 5,2 C 2,8 C 33,8 km/h (5 Bft)
15.01.2018 22:45 6,0 C 5,9 C 6,0 C 94 % 1000,8 hPa 0,4 l/m 8,9 km/h (2 Bft) S 182 0 min 5,1 C 4,0 C 24,1 km/h (4 Bft)
15.01.2018 22:30 5,9 C 5,9 C 5,9 C 93 % 1001,0 hPa 0,4 l/m 11,4 km/h (2 Bft) S-SW 210 0 min 4,9 C 2,2 C 29,0 km/h (5 Bft)
15.01.2018 22:15 5,9 C 5,8 C 5,9 C 93 % 1001,1 hPa 0,6 l/m 8,5 km/h (2 Bft) W-SW 246 0 min 4,9 C 4,2 C 27,4 km/h (4 Bft)
15.01.2018 22:01 5,8 C 5,7 C 5,8 C 93 % 1001,2 hPa 0,2 l/m 8,7 km/h (2 Bft) S-SO 147 0 min 4,8 C 3,9 C 27,4 km/h (4 Bft)
15.01.2018 21:45 5,7 C 5,6 C 5,7 C 93 % 1001,5 hPa 0,0 l/m 10,4 km/h (2 Bft) S 184 0 min 4,7 C 2,6 C 30,6 km/h (5 Bft)
15.01.2018 21:30 5,7 C 5,6 C 5,7 C 93 % 1001,7 hPa 0,4 l/m 7,2 km/h (2 Bft) SW 218 0 min 4,7 C 5,0 C 27,4 km/h (4 Bft)
15.01.2018 21:15 5,6 C 5,5 C 5,6 C 92 % 1001,6 hPa 0,4 l/m 9,4 km/h (2 Bft) SW 229 0 min 4,4 C 3,2 C 25,7 km/h (4 Bft)
15.01.2018 21:00 5,6 C 5,4 C 5,6 C 92 % 1001,8 hPa 0,6 l/m 9,6 km/h (2 Bft) S 170 0 min 4,4 C 3,0 C 29,0 km/h (5 Bft)
15.01.2018 20:45 5,4 C 5,4 C 5,4 C 92 % 1002,0 hPa 0,4 l/m 10,6 km/h (2 Bft) S 175 0 min 4,2 C 2,1 C 30,6 km/h (5 Bft)
15.01.2018 20:30 5,4 C 5,3 C 5,4 C 92 % 1002,1 hPa 0,4 l/m 11,4 km/h (2 Bft) SO 146 0 min 4,2 C 1,6 C 38,6 km/h (5 Bft)
15.01.2018 20:15 5,3 C 5,2 C 5,3 C 92 % 1002,2 hPa 0,2 l/m 11,1 km/h (2 Bft) S-SW 206 0 min 4,1 C 1,7 C 38,6 km/h (5 Bft)
15.01.2018 20:00 5,2 C 5,2 C 5,2 C 92 % 1002,5 hPa 0,4 l/m 11,5 km/h (2 Bft) SW 217 0 min 4,0 C 1,3 C 33,8 km/h (5 Bft)
15.01.2018 19:45 5,2 C 5,2 C 5,2 C 92 % 1002,9 hPa 0,6 l/m 10,5 km/h (2 Bft) S-SO 148 0 min 4,0 C 1,9 C 37,0 km/h (5 Bft)
15.01.2018 19:30 5,2 C 5,2 C 5,3 C 92 % 1003,1 hPa 0,8 l/m 11,1 km/h (2 Bft) SW 236 0 min 4,0 C 1,6 C 40,2 km/h (6 Bft)
15.01.2018 19:15 5,3 C 5,2 C 5,3 C 91 % 1003,3 hPa 0,6 l/m 11,9 km/h (2 Bft) S-SO 147 0 min 4,0 C 1,2 C 37,0 km/h (5 Bft)
15.01.2018 19:00 5,3 C 5,3 C 5,4 C 91 % 1003,5 hPa 1,0 l/m 12,6 km/h (3 Bft) S 186 0 min 4,0 C 0,7 C 33,8 km/h (5 Bft)
15.01.2018 18:45 5,4 C 5,4 C 5,6 C 90 % 1004,0 hPa 0,6 l/m 10,3 km/h (2 Bft) S 179 0 min 3,9 C 2,3 C 33,8 km/h (5 Bft)
15.01.2018 18:30 5,6 C 5,6 C 5,7 C 90 % 1004,3 hPa 0,4 l/m 10,0 km/h (2 Bft) S-SW 198 0 min 4,1 C 2,7 C 25,7 km/h (4 Bft)
15.01.2018 18:15 5,7 C 5,7 C 5,9 C 89 % 1004,6 hPa 0,6 l/m 12,6 km/h (3 Bft) S-SW 192 0 min 4,0 C 1,2 C 37,0 km/h (5 Bft)
15.01.2018 18:01 5,9 C 5,9 C 6,2 C 88 % 1005,1 hPa 0,8 l/m 10,0 km/h (2 Bft) S 182 0 min 4,1 C 3,1 C 29,0 km/h (5 Bft)
15.01.2018 17:45 6,2 C 6,2 C 6,5 C 86 % 1005,3 hPa 0,4 l/m 9,8 km/h (2 Bft) S-SO 167 0 min 4,0 C 3,5 C 32,2 km/h (5 Bft)
15.01.2018 17:30 6,5 C 6,5 C 6,6 C 84 % 1005,8 hPa 0,2 l/m 8,8 km/h (2 Bft) S 180 0 min 4,0 C 4,6 C 30,6 km/h (5 Bft)
15.01.2018 17:15 6,6 C 6,6 C 6,6 C 83 % 1006,1 hPa 0,0 l/m 12,3 km/h (3 Bft) S-SO 148 0 min 3,9 C 2,4 C 32,2 km/h (5 Bft)
15.01.2018 17:00 6,6 C 6,6 C 6,6 C 82 % 1006,3 hPa 0,0 l/m 11,7 km/h (2 Bft) S 175 0 min 3,8 C 2,8 C 27,4 km/h (4 Bft)
15.01.2018 16:45 6,6 C 6,5 C 6,6 C 83 % 1006,9 hPa 0,0 l/m 9,5 km/h (2 Bft) S 171 0 min 3,9 C 4,2 C 30,6 km/h (5 Bft)
15.01.2018 16:30 6,6 C 6,5 C 6,6 C 83 % 1007,3 hPa 0,0 l/m 8,7 km/h (2 Bft) SO 130 0 min 3,9 C 4,8 C 30,6 km/h (5 Bft)
15.01.2018 16:15 6,6 C 6,6 C 6,6 C 83 % 1007,8 hPa 0,0 l/m 9,7 km/h (2 Bft) S-SO 158 0 min 3,9 C 4,0 C 24,1 km/h (4 Bft)
15.01.2018 16:00 6,6 C 6,6 C 6,6 C 83 % 1008,2 hPa 0,0 l/m 10,0 km/h (2 Bft) S-SO 159 0 min 3,9 C 3,8 C 25,7 km/h (4 Bft)
15.01.2018 15:45 6,6 C 6,6 C 6,6 C 83 % 1008,4 hPa 0,0 l/m 7,3 km/h (2 Bft) S 182 0 min 3,9 C 5,8 C 20,9 km/h (4 Bft)
15.01.2018 15:30 6,6 C 6,6 C 6,6 C 83 % 1008,6 hPa 0,0 l/m 9,3 km/h (2 Bft) S-SW 202 0 min 3,9 C 4,3 C 25,7 km/h (4 Bft)
15.01.2018 15:16 6,6 C 6,6 C 6,6 C 83 % 1008,7 hPa 0,0 l/m 9,6 km/h (2 Bft) S-SO 150 0 min 3,9 C 4,1 C 27,4 km/h (4 Bft)
15.01.2018 15:00 6,6 C 6,6 C 6,7 C 83 % 1008,5 hPa 0,0 l/m 11,3 km/h (2 Bft) S-SO 163 0 min 3,9 C 3,0 C 38,6 km/h (5 Bft)
15.01.2018 14:45 6,7 C 6,7 C 6,8 C 82 % 1008,9 hPa 0,0 l/m 10,9 km/h (2 Bft) S 181 0 min 3,8 C 3,4 C 25,7 km/h (4 Bft)
15.01.2018 14:30 6,8 C 6,8 C 6,9 C 81 % 1009,8 hPa 0,0 l/m 8,5 km/h (2 Bft) S 190 0 min 3,8 C 5,1 C 22,5 km/h (4 Bft)
15.01.2018 14:15 6,9 C 6,9 C 6,9 C 80 % 1010,6 hPa 0,0 l/m 7,5 km/h (2 Bft) S-SO 161 0 min 3,7 C 6,0 C 25,7 km/h (4 Bft)
15.01.2018 14:00 6,9 C 6,5 C 6,9 C 81 % 1011,4 hPa 0,0 l/m 6,7 km/h (2 Bft) S 177 0 min 3,9 C 6,7 C 19,3 km/h (3 Bft)
15.01.2018 13:45 6,5 C 6,3 C 6,5 C 82 % 1012,2 hPa 0,0 l/m 6,4 km/h (2 Bft) S 188 0 min 3,7 C 6,5 C 19,3 km/h (3 Bft)
15.01.2018 13:30 6,3 C 6,2 C 6,3 C 82 % 1012,7 hPa 0,0 l/m 5,4 km/h (1 Bft) W 260 0 min 3,5 C 6,3 C 19,3 km/h (3 Bft)
15.01.2018 13:15 6,2 C 6,1 C 6,2 C 83 % 1013,1 hPa 0,0 l/m 7,3 km/h (2 Bft) SW 216 0 min 3,5 C 5,4 C 22,5 km/h (4 Bft)
15.01.2018 13:00 6,1 C 6,1 C 6,1 C 83 % 1013,4 hPa 0,0 l/m 10,5 km/h (2 Bft) S-SO 150 0 min 3,4 C 3,0 C 29,0 km/h (5 Bft)
15.01.2018 12:45 6,1 C 5,9 C 6,1 C 83 % 1013,6 hPa 0,0 l/m 7,4 km/h (2 Bft) S-SO 161 0 min 3,4 C 5,3 C 24,1 km/h (4 Bft)
15.01.2018 12:30 5,9 C 5,7 C 5,9 C 84 % 1013,9 hPa 0,0 l/m 6,8 km/h (2 Bft) S-SO 165 0 min 3,4 C 5,6 C 22,5 km/h (4 Bft)
15.01.2018 12:15 5,7 C 5,1 C 5,7 C 85 % 1014,2 hPa 0,0 l/m 9,8 km/h (2 Bft) S-SO 154 0 min 3,4 C 3,0 C 25,7 km/h (4 Bft)
15.01.2018 12:00 5,1 C 4,3 C 5,1 C 88 % 1014,7 hPa 0,0 l/m 6,6 km/h (2 Bft) S 171 0 min 3,3 C 4,9 C 22,5 km/h (4 Bft)
15.01.2018 11:45 4,3 C 4,0 C 4,3 C 90 % 1015,0 hPa 0,0 l/m 6,1 km/h (2 Bft) S-SO 165 0 min 2,8 C 4,3 C 19,3 km/h (3 Bft)
15.01.2018 11:30 4,0 C 3,7 C 4,0 C 91 % 1015,3 hPa 0,0 l/m 7,1 km/h (2 Bft) S-SW 200 0 min 2,7 C 3,4 C 16,1 km/h (3 Bft)
15.01.2018 11:15 3,7 C 3,3 C 3,7 C 92 % 1015,6 hPa 0,0 l/m 6,6 km/h (2 Bft) S 169 0 min 2,5 C 3,5 C 17,7 km/h (3 Bft)
15.01.2018 11:00 3,3 C 3,1 C 3,3 C 93 % 1015,8 hPa 0,0 l/m 5,6 km/h (1 Bft) S-SO 165 0 min 2,3 C 3,3 C 16,1 km/h (3 Bft)
15.01.2018 10:45 3,1 C 2,8 C 3,1 C 94 % 1016,1 hPa 0,0 l/m 3,8 km/h (1 Bft) S 187 0 min 2,2 C 3,1 C 14,5 km/h (3 Bft)
15.01.2018 10:30 2,8 C 2,4 C 2,8 C 95 % 1016,3 hPa 0,0 l/m 2,9 km/h (1 Bft) S 180 0 min 2,1 C 2,8 C 11,3 km/h (2 Bft)
15.01.2018 10:15 2,4 C 2,1 C 2,4 C 95 % 1016,4 hPa 0,0 l/m 1,8 km/h (1 Bft) S 174 0 min 1,7 C 2,4 C 9,7 km/h (2 Bft)
15.01.2018 10:00 2,1 C 1,6 C 2,1 C 95 % 1016,6 hPa 0,0 l/m 2,2 km/h (1 Bft) S-SW 212 0 min 1,4 C 2,1 C 14,5 km/h (3 Bft)
15.01.2018 09:45 1,6 C 1,1 C 1,6 C 95 % 1016,7 hPa 0,0 l/m 1,8 km/h (1 Bft) S 173 0 min 0,9 C 1,6 C 8,0 km/h (2 Bft)
15.01.2018 09:30 1,1 C 0,8 C 1,1 C 95 % 1016,8 hPa 0,0 l/m 0,1 km/h (0 Bft) SO 130 0 min 0,4 C 1,1 C 3,2 km/h (1 Bft)
15.01.2018 09:15 0,8 C 0,6 C 0,8 C 95 % 1017,2 hPa 0,0 l/m 0,1 km/h (0 Bft) O-SO 123 0 min 0,1 C 0,8 C 1,6 km/h (1 Bft)
15.01.2018 09:00 0,6 C 0,4 C 0,6 C 95 % 1017,3 hPa 0,0 l/m 0,0 km/h (0 Bft) O-SO 123 0 min -0,1 C 0,6 C 1,6 km/h (1 Bft)
_ Min-Zeit 09:00 09:00 09:00 14:15 06:00 - 09:00 - - - 09:00 09:00 09:00
Minimum _ 0,6 C 0,4 C 0,6 C 80 % 997,3 hPa - 0,0 km/h (0 Bft) - - - -0,1 C 0,6 C 1,6 km/h (1 Bft)
_ Max-Zeit 14:00 14:15 14:00 09:00 09:00 19:00 18:15 - - 09:00 06:00 08:30 06:15
Maximum _ 6,9 C 6,9 C 6,9 C 95 % 1017,3 hPa 1,0 l/m 12,6 km/h
S-SW (3 Bft)
- - 0 min 6,1 C 6,9 C 45,1 km/h
W (6 Bft)
Durchschnitt _ 5,4 C 5,3 C 5,5 C 91 % 1005,6 hPa #20,2 l/m 6,2 km/h (2 Bft) S - #0 min. 4,0 C 4,2 C 21,7 km/h (4 Bft)